Lid_Strength_Index
3 3 3 2 1 2 2 1 1 1 3 5 5 5 4 5 5 6 8 8 8 8
4 3 2 2 1 1 2 1 1 0 4 5 4 4 4 5 4 6 8 8 8 9
8 5 5 5 2 1 2 1 1 1 3 5 4 4 5 5 5 6 7 8 8 9
10 9 7 6 4 4 1 2 1 2 3 5 5 4 5 5 6 6 7 7 8 9
10 9 9 7 7 5 1 3 3 3 3 5 5 4 4 5 5 6 7 7 8 9
10 10 9 7 7 6 3 4 5 5 5 5 5 4 4 4 6 6 6 7 8 8
9 8 9 8 6 5 3 4 6 6 5 6 5 5 4 4 6 6 7 7 8 8
9 8 7 6 6 4 3 4 6 6 6 6 5 5 6 6 7 7 8 8 8 8
9 8 7 5 4 5 3 4 6 6 6 6 6 9 7 7 8 8 8 9 8 7
8 8 8 6 3 4 3 5 5 8 9 10 9 10 9 8 9 8 9 9 9 8
7 6 7 6 3 2 4 8 10 11 11 11 11 11 11 10 10 9 9 9 9 8
8 6 6 4 2 5 10 11 12 12 12 11 12 11 11 10 10 10 10 9 9 10
8 7 7 8 7 8 9 10 12 12 11 10 11 11 11 10 11 11 10 11 11 10
9 9 8 7 6 9 10 10 10 11 11 11 11 11 12 12 12 11 10 10 10 11